This is the latest recevied weather packets stored in our database for station/object OE5ERN-10. If no packets are shown the sender has not sent any weather packets the latest 10 day(s).
| Time | Temp. | Humidity | Pressure | Rain* | Wind** | Luminosity | Snow |
|---|---|---|---|---|---|---|---|
| 1777254050 | 6.11° C | 57% | 1026.5 hPa | 0 mm | - | - | - |
| 1777253150 | 5.56° C | 57% | 1026.5 hPa | 0 mm | - | - | - |
| 1777252250 | 5.56° C | 57% | 1026.6 hPa | 0 mm | - | - | - |
| 1777251350 | 5.56° C | 56% | 1026.7 hPa | 0 mm | - | - | - |
| 1777250450 | 6.11° C | 55% | 1026.7 hPa | 0 mm | - | - | - |
| 1777249550 | 6.11° C | 54% | 1026.8 hPa | 0 mm | - | - | - |
| 1777248650 | 6.67° C | 54% | 1026.8 hPa | 0 mm | - | - | - |
| 1777247750 | 6.67° C | 54% | 1027 hPa | 0 mm | - | - | - |
| 1777246850 | 6.67° C | 55% | 1027 hPa | 0 mm | - | - | - |
| 1777245950 | 6.67° C | 54% | 1027 hPa | 0 mm | - | - | - |
| 1777245050 | 6.67° C | 53% | 1027 hPa | 0 mm | - | - | - |
| 1777244150 | 7.22° C | 52% | 1027.3 hPa | 0 mm | - | - | - |
| 1777243250 | 7.78° C | 51% | 1027.3 hPa | 0 mm | - | - | - |
| 1777242350 | 7.78° C | 50% | 1027.3 hPa | 0 mm | - | - | - |
| 1777241450 | 8.33° C | 49% | 1027.1 hPa | 0 mm | - | - | - |
| 1777240550 | 8.89° C | 50% | 1027.1 hPa | 0 mm | - | - | - |
| 1777239650 | 8.33° C | 50% | 1027.2 hPa | 0 mm | - | - | - |
| 1777238750 | 8.89° C | 48% | 1027.2 hPa | 0 mm | - | - | - |
| 1777237850 | 9.44° C | 47% | 1027.2 hPa | 0 mm | - | - | - |
| 1777236950 | 10° C | 46% | 1027.2 hPa | 0 mm | - | - | - |
| 1777236050 | 10° C | 44% | 1026.9 hPa | 0 mm | - | - | - |
| 1777235150 | 11.11° C | 42% | 1026.9 hPa | 0 mm | - | - | - |
| 1777234250 | 11.67° C | 41% | 1026.7 hPa | 0 mm | - | - | - |
| 1777233351 | 11.67° C | 41% | 1026.5 hPa | 0 mm | - | - | - |
| 1777232450 | 11.11° C | 42% | 1026.4 hPa | 0 mm | - | - | - |
* Rain latest hour (hover to see other rain measurements)
** Current wind speed in m/s (hover to see current wind gust speed)